Location: Oshawa
(43.9000°N, 78.8670°W)
Time: 18:17:28
(UTC-04:00)

PAYLOAD A - Visible Passes

Search period start: 28 August 2015 00:00
Search period end: 07 September 2015 00:00
Orbit: 692 x 832 km, 98.2° (Epoch: 28 August)

Date Brightness Start Highest point End Pass type
(mag) Time Alt. Az. Time Alt. Az. Time Alt. Az.
29 Aug 6.7 20:24:26 10° SW 20:28:28 23° W 20:32:29 10° NW visible
31 Aug 7.1 20:49:54 10° WSW 20:52:38 14° W 20:55:08 10° WNW visible
03 Sep 6.9 20:34:57 10° SW 20:38:37 19° W 20:42:12 10° NW visible
05 Sep 7.4 21:01:12 10° WSW 21:02:52 11° W 21:04:10 10° WNW visible
06 Sep 6.6 20:20:22 10° SSW 20:24:40 25° W 20:28:58 10° NW visible
